CW4610 Weather Reports


Display with metric or nautical units.
time (UTC)temp
F
wind
direction
speed
MPH
gust
MPH
rain 1hr
in
rain 24hr
in
rain mn
in
humidity
%
barometer
mb
20211129090527 47 293 1.0 2.0 0.00 0.35 0.00 100 1019.8
20211129085527 47 23 2.0 2.0 0.00 0.36 0.00 100 1019.9
20211129084527 47 90 1.0 3.0 0.00 0.37 0.00 100 1019.9
20211129083527 47 68 1.0 2.0 0.00 0.39 0.00 100 1020.0
20211129082519 47 0 2.0 4.0 0.00 0.41 0.00 100 1019.9
20211129081528 47 315 2.0 3.0 0.00 0.43 0.00 100 1019.9
20211129080527 47 338 3.0 5.0 0.00 0.45 0.00 100 1019.8
20211129075526 47 270 1.0 3.0 0.00 0.46 0.45 100 1019.8
20211129074526 47 0.0 2.0 0.00 0.47 0.45 100 1019.8
20211129073526 47 23 2.0 4.0 0.00 0.47 0.45 100 1019.7
20211129072526 47 338 1.0 3.0 0.00 0.48 0.45 100 1019.8
20211129071526 47 338 3.0 5.0 0.00 0.49 0.45 100 1019.8
20211129070526 47 338 1.0 2.0 0.00 0.50 0.45 100 1019.6
20211129065526 47 68 2.0 4.0 0.00 0.52 0.45 100 1019.4
20211129064526 47 0 1.0 2.0 0.00 0.53 0.45 100 1019.3
20211129063526 47 23 3.0 4.0 0.00 0.55 0.45 100 1019.3
20211129062526 47 23 3.0 5.0 0.00 0.56 0.45 100 1019.3
20211129061526 47 23 1.0 2.0 0.01 0.57 0.45 100 1019.3
20211129060526 47 338 2.0 5.0 0.02 0.58 0.45 100 1019.3
20211129055526 47 23 2.0 3.0 0.02 0.58 0.45 100 1019.1
20211129054531 47 0 3.0 4.0 0.02 0.59 0.45 100 1019.1
20211129053526 47 23 2.0 3.0 0.02 0.60 0.45 100 1018.9
20211129052526 47 0 2.0 3.0 0.02 0.61 0.45 100 1019.2
20211129051531 47 315 3.0 4.0 0.02 0.61 0.44 100 1019.2
20211129050530 47 0 2.0 4.0 0.01 0.61 0.43 100 1018.8
20211129045525 47 338 2.0 4.0 0.01 0.62 0.43 100 1018.7
20211129044518 48 23 2.0 3.0 0.01 0.63 0.43 100 1018.7
20211129043526 48 23 1.0 2.0 0.01 0.64 0.43 100 1018.7
20211129042526 48 0 1.0 2.0 0.01 0.65 0.43 100 1018.3
20211129041526 48 45 1.0 2.0 0.01 0.64 0.42 100 1018.3
20211129040528 48 0.0 2.0 0.01 0.65 0.42 100 1018.3
20211129035528 48 0 2.0 3.0 0.02 0.66 0.42 100 1018.3
20211129034528 48 315 2.0 3.0 0.02 0.67 0.42 100 1018.3
20211129033527 48 315 1.0 3.0 0.02 0.67 0.42 100 1018.2
20211129032528 48 338 1.0 2.0 0.05 0.68 0.42 100 1017.8
20211129031527 48 338 2.0 2.0 0.04 0.69 0.41 100 1017.8
20211129030527 48 68 2.0 3.0 0.04 0.70 0.41 100 1017.7
20211129025528 48 23 3.0 4.0 0.03 0.69 0.40 100 1017.8
20211129024527 48 45 3.0 5.0 0.04 0.70 0.40 100 1017.8
20211129023527 48 23 3.0 4.0 0.05 0.71 0.40 100 1017.8
20211129022527 48 23 1.0 2.0 0.03 0.69 0.37 100 1017.4
20211129021528 48 0 3.0 5.0 0.04 0.70 0.37 100 1017.4
20211129020520 48 315 3.0 5.0 0.05 0.71 0.37 100 1017.3
20211129015528 48 315 3.0 5.0 0.05 0.72 0.37 100 1017.2
20211129014528 48 23 1.0 4.0 0.04 0.72 0.36 100 1017.2
20211129013532 48 338 3.0 5.0 0.03 0.72 0.35 100 1017.2
20211129012527 48 315 3.0 6.0 0.02 0.72 0.34 100 1016.9
20211129011527 48 293 1.0 3.0 0.01 0.72 0.33 100 1016.9
20211129010528 48 315 1.0 2.0 0.01 0.72 0.32 100 1016.7
20211129005528 48 315 1.0 2.0 0.01 0.73 0.32 100 1016.7
20211129004528 48 0 2.0 5.0 0.01 0.75 0.32 100 1016.7
20211129003527 48 23 2.0 3.0 0.02 0.76 0.32 100 1016.7
20211129002527 48 0 2.0 3.0 0.02 0.77 0.32 100 1016.7
20211129001532 48 0 2.0 3.0 0.02 0.78 0.32 100 1016.7
20211129000527 48 338 3.0 4.0 0.02 0.78 0.31 100 1016.6
20211128235527 48 315 3.0 6.0 0.02 0.80 0.31 100 1016.4
20211128234528 48 338 3.0 4.0 0.02 0.81 0.31 100 1016.4
20211128233527 48 315 3.0 5.0 0.01 0.82 0.30 100 1016.2
20211128232527 48 315 3.0 5.0 0.01 0.83 0.30 100 1016.0
20211128231527 48 338 3.0 4.0 0.01 0.85 0.30 100 1016.0
20211128230527 48 338 2.0 3.0 0.00 0.86 0.29 100 1015.8
20211128225532 48 0.0 1.0 0.00 0.87 0.29 100 1015.6
20211128224527 48 0 1.0 2.0 0.00 0.87 0.29 100 1015.6
20211128223519 48 0.0 1.0 0.00 0.88 0.29 100 1015.7
20211128222527 48 0.0 1.0 0.00 0.89 0.29 100 1015.9
20211128221527 48 315 2.0 3.0 0.00 0.90 0.29 100 1015.9
20211128220527 47 23 1.0 3.0 0.01 0.92 0.29 100 1015.7
20211128215527 47 0 2.0 3.0 0.01 0.93 0.29 100 1015.9
20211128214527 47 315 1.0 3.0 0.01 0.95 0.29 100 1015.9
20211128213527 47 315 2.0 4.0 0.01 0.97 0.29 100 1015.7
20211128212527 47 293 1.0 2.0 0.01 0.99 0.29 100 1015.8
20211128211527 47 315 2.0 3.0 0.01 1.01 0.29 100 1015.8
20211128210527 47 315 2.0 3.0 0.00 1.02 0.28 100 1015.7
20211128205527 47 315 1.0 3.0 0.00 1.04 0.28 100 1015.7
20211128204527 46 315 2.0 3.0 0.01 1.07 0.28 100 1015.7
20211128203527 46 315 1.0 3.0 0.01 1.10 0.28 100 1015.7
20211128202527 46 338 3.0 4.0 0.01 1.13 0.28 100 1015.6
20211128201519 46 315 1.0 2.0 0.01 1.16 0.28 100 1015.6
20211128200527 46 0.0 1.0 0.01 1.19 0.28 100 1015.7
20211128195527 46 315 1.0 3.0 0.02 1.21 0.28 100 1015.6
20211128194527 45 0.0 1.0 0.01 1.23 0.27 100 1015.6
20211128193527 45 68 2.0 5.0 0.01 1.25 0.27 100 1015.8
20211128192527 45 68 2.0 3.0 0.01 1.27 0.27 100 1015.9
20211128191519 45 0 1.0 2.0 0.02 1.28 0.27 100 1015.9
20211128190526 45 315 2.0 4.0 0.02 1.30 0.27 100 1015.7
20211128185526 45 315 2.0 4.0 0.01 1.31 0.26 100 1015.3
20211128184527 45 0.0 1.0 0.01 1.33 0.26 100 1015.3
20211128183519 44 338 1.0 2.0 0.01 1.35 0.26 100 1015.6
20211128182526 44 338 1.0 1.0 0.01 1.37 0.26 100 1015.1
20211128181527 44 0 1.0 2.0 0.00 1.38 0.25 100 1015.1
20211128180526 44 338 1.0 2.0 0.00 1.40 0.25 100 1015.0
20211128175526 44 0 1.0 2.0 0.01 1.41 0.25 100 1014.6
20211128174527 44 338 1.0 2.0 0.01 1.43 0.25 100 1014.6
20211128173527 44 338 1.0 2.0 0.01 1.45 0.25 100 1014.4
20211128172526 44 344 0.0 0.0 0.01 1.47 0.25 100 1014.1
20211128171527 44 338 1.0 2.0 0.01 1.49 0.25 100 1014.1
20211128170527 44 293 1.0 2.0 0.01 1.51 0.25 100 1013.8
20211128165526 44 167 0.0 0.0 0.00 1.52 0.24 100 1013.9
20211128164526 43 203 1.0 2.0 0.00 1.54 0.24 100 1013.9
20211128163526 43 0.0 2.0 0.01 1.56 0.24 100 1013.5
20211128162526 43 0.0 1.0 0.01 1.56 0.24 100 1013.3
20211128161527 43 0.0 1.0 0.01 1.57 0.24 100 1013.3
20211128160526 43 0.0 1.0 0.01 1.58 0.24 100 1013.5
20211128155526 43 45 1.0 2.0 0.01 1.59 0.24 100 1013.5
20211128154527 43 45 2.0 3.0 0.02 1.61 0.24 100 1013.5
20211128153526 43 23 3.0 4.0 0.01 1.61 0.23 100 1013.5
20211128152526 43 0 2.0 3.0 0.01 1.63 0.23 100 1013.5
20211128151526 43 315 2.0 3.0 0.01 1.64 0.23 100 1013.5
20211128150526 43 315 1.0 2.0 0.02 1.65 0.23 100 1013.0
20211128145526 43 315 1.0 2.0 0.02 1.66 0.23 100 1013.1
20211128144526 43 0.0 1.0 0.02 1.67 0.22 100 1013.1
20211128143526 43 0.0 1.0 0.02 1.68 0.22 100 1013.0
20211128142526 43 316 0.0 0.0 0.03 1.70 0.22 100 1012.7
20211128141526 43 315 1.0 2.0 0.03 1.71 0.22 100 1012.7
20211128140526 43 0 1.0 2.0 0.03 1.72 0.21 100 1012.6
20211128135531 43 23 1.0 2.0 0.03 1.74 0.21 100 1013.0
20211128134526 43 0.0 2.0 0.03 1.74 0.20 100 1013.0
20211128133526 43 0.0 1.0 0.03 1.75 0.20 100 1012.9
20211128132518 43 5 0.0 0.0 0.02 1.75 0.19 100 1013.0
20211128131526 43 0 1.0 2.0 0.03 1.75 0.19 100 1013.0
20211128130526 43 0.0 1.0 0.02 1.75 0.18 100 1012.9
20211128125526 43 0.0 2.0 0.02 1.76 0.18 100 1013.0
20211128124526 43 0.0 1.0 0.02 1.76 0.17 100 1013.0
20211128123526 43 113 1.0 2.0 0.02 1.77 0.17 100 1012.9
20211128122526 43 0.0 1.0 0.02 1.77 0.17 100 1012.9
20211128121531 43 0.0 2.0 0.01 1.76 0.16 100 1012.9
20211128120531 43 68 1.0 3.0 0.01 1.76 0.16 100 1012.8
20211128115526 43 68 1.0 2.0 0.01 1.77 0.16 100 1012.6
20211128114526 43 68 2.0 3.0 0.00 1.76 0.15 99 1012.6
20211128113526 43 0.0 1.0 0.00 1.76 0.15 99 1012.6
20211128112518 43 23 2.0 4.0 0.01 1.76 0.15 99 1012.3
20211128111526 43 0 2.0 4.0 0.01 1.76 0.15 99 1012.3
20211128110518 43 338 3.0 4.0 0.02 1.76 0.15 99 1012.3
20211128105526 43 315 4.0 8.0 0.02 1.76 0.15 99 1011.9
20211128104526 43 293 3.0 5.0 0.03 1.76 0.15 100 1011.9
20211128103526 43 293 2.0 3.0 0.04 1.76 0.15 100 1011.4
20211128102528 43 338 1.0 2.0 0.03 1.75 0.14 100 1011.5
20211128101520 43 0 2.0 3.0 0.04 1.75 0.14 100 1011.5
20211128100532 43 345 0.0 0.0 0.03 1.74 0.13 99 1011.5
20211128095532 43 0.0 1.0 0.04 1.74 0.13 99 1011.5
20211128094527 43 0.0 1.0 0.04 1.73 0.12 99 1011.5
20211128093527 43 113 1.0 2.0 0.05 1.72 0.11 99 1011.4
20211128092526 43 113 2.0 3.0 0.07 1.72 0.11 99 1011.6
20211128091528 43 45 1.0 2.0 0.08 1.71 0.10 99 1011.6